DW8463 Weather Reports


time (UTC)temp
F
wind
direction
speed
knots
gust
knots
rain 1hr
in
rain 24hr
in
rain mn
in
humidity
%
barometer
mb
20260902021803 71 0 0.0 0.0 0.00 0.00 0.00 100 1011.1
20260902021304 71 0 0.0 0.0 0.00 0.00 0.00 100 1011.2
20260902020804 71 0 0.0 0.0 0.00 0.00 0.00 100 1011.2
20260902020303 71 0 0.0 0.0 0.00 0.00 0.00 100 1011.2
20260902015803 72 0 0.0 0.9 0.00 0.00 0.00 100 1011.1
20260902015306 72 0 0.0 0.0 0.00 0.00 0.00 100 1011.0
20260902014804 72 0 0.0 0.0 0.00 0.00 0.00 100 1011.0
20260902014304 72 306 0.0 0.0 0.00 0.00 0.00 100 1011.0
20260902013803 73 306 0.0 0.0 0.00 0.00 0.00 100 1011.0
20260902013304 73 306 0.0 0.0 0.00 0.00 0.00 100 1010.9
20260902012309 73 306 0.0 0.9 0.00 0.00 0.00 100 1010.9
20260902011803 74 306 0.0 0.0 0.00 0.00 0.00 100 1010.8
20260902011303 74 306 0.0 0.0 0.00 0.00 0.00 100 1010.8
20260902010803 74 306 0.0 0.0 0.00 0.00 0.00 100 1010.8
20260902010303 75 306 0.0 0.0 0.00 0.00 0.00 100 1010.8
20260902005803 75 306 0.0 0.0 0.00 0.00 0.00 93 1010.9
20260902005305 75 306 0.0 0.0 0.00 0.00 0.00 93 1010.9
20260902003803 76 306 0.0 0.0 0.00 0.00 0.00 93 1010.9
20260902003304 77 306 0.0 0.0 0.00 0.00 0.00 93 1010.9
20260902002803 77 306 0.0 0.0 0.00 0.00 0.00 93 1010.9
20260902001804 77 306 0.0 0.0 0.00 0.00 0.00 93 1011.0
20260902001303 78 306 0.0 0.0 0.00 0.00 0.00 93 1011.0
20260902000803 78 306 0.0 0.0 0.00 0.00 0.00 93 1011.0
20260902000304 78 306 0.0 0.0 0.00 0.00 0.00 93 1011.0
20260901235803 79 306 0.0 0.0 0.00 0.00 0.00 86 1011.0
20260901234803 79 306 0.0 0.0 0.00 0.00 0.00 86 1010.9
20260901234303 80 306 0.0 0.0 0.00 0.00 0.00 86 1010.8
20260901233303 80 306 0.0 0.0 0.00 0.00 0.00 86 1010.9
20260901232803 80 306 0.0 0.0 0.00 0.00 0.00 86 1010.9
20260901231803 81 306 0.0 1.7 0.00 0.00 0.00 86 1010.9
20260901231303 81 306 0.0 1.7 0.00 0.00 0.00 86 1010.8
20260901230303 80 306 0.0 0.0 0.00 0.00 0.00 86 1010.7
20260901224803 81 306 0.0 0.0 0.00 0.00 0.00 78 1010.6
20260901224303 82 306 0.0 0.0 0.00 0.00 0.00 78 1010.6
20260901223804 82 306 0.0 0.0 0.00 0.00 0.00 78 1010.6
20260901223304 83 306 0.0 0.9 0.00 0.00 0.00 78 1010.6
20260901222803 83 306 0.0 0.0 0.00 0.00 0.00 78 1010.8
20260901221803 83 267 0.9 2.6 0.00 0.00 0.00 78 1011.0
20260901221304 83 215 0.0 2.6 0.00 0.00 0.00 78 1011.0
20260901220803 84 197 0.0 4.3 0.00 0.00 0.00 78 1011.0
20260901220304 84 200 0.9 2.6 0.00 0.00 0.00 76 1010.9
20260901215803 84 217 1.7 4.3 0.00 0.00 0.00 67 1010.9
20260901215306 84 190 1.7 6.1 0.00 0.00 0.00 67 1010.9
20260901214803 84 193 1.7 5.2 0.00 0.00 0.00 67 1010.9
20260901214304 84 163 1.7 5.2 0.00 0.00 0.00 67 1010.8
20260901213803 84 193 0.9 2.6 0.00 0.00 0.00 67 1010.8
20260901213304 84 183 0.9 2.6 0.00 0.00 0.00 67 1010.8
20260901212803 84 201 0.0 0.0 0.00 0.00 0.00 67 1010.8
20260901212306 84 201 0.0 1.7 0.00 0.00 0.00 67 1010.6
20260901211304 84 211 1.7 4.3 0.00 0.00 0.00 67 1010.7
20260901210803 84 209 0.9 5.2 0.00 0.00 0.00 67 1010.9
20260901210304 84 199 0.9 2.6 0.00 0.00 0.00 67 1011.0
20260901205803 84 226 1.7 2.6 0.00 0.00 0.00 59 1010.8
20260901204803 85 191 1.7 2.6 0.00 0.00 0.00 59 1010.7
20260901204303 85 191 0.0 1.7 0.00 0.00 0.00 59 1010.9
20260901203803 86 191 0.9 2.6 0.00 0.00 0.00 59 1010.8
20260901203303 86 191 0.0 0.0 0.00 0.00 0.00 59 1010.7
20260901202306 85 191 0.0 2.6 0.00 0.00 0.00 59 1011.2
20260901201803 84 191 0.9 2.6 0.00 0.00 0.00 59 1011.3
20260901200803 83 191 0.0 0.0 0.00 0.00 0.00 59 1011.1
20260901200303 84 191 0.0 0.0 0.00 0.00 0.00 59 1011.4
20260901195804 84 191 0.0 0.0 0.00 0.00 0.00 59 1011.5
20260901194303 85 191 1.7 4.3 0.00 0.00 0.00 59 1011.5
20260901193803 85 238 0.0 1.7 0.00 0.00 0.00 59 1011.4
20260901193303 85 238 0.0 0.0 0.00 0.00 0.00 59 1011.4
20260901192803 85 238 0.0 0.0 0.00 0.00 0.00 59 1011.4
20260901192306 85 238 0.0 0.0 0.00 0.00 0.00 59 1011.3
20260901191803 85 238 0.0 0.9 0.00 0.00 0.00 59 1011.3
20260901191303 85 238 0.0 2.6 0.00 0.00 0.00 59 1011.3
20260901190804 85 238 0.9 4.3 0.00 0.00 0.00 59 1011.3
20260901190303 85 237 0.9 2.6 0.00 0.00 0.00 59 1011.5
20260901185306 86 228 0.9 2.6 0.00 0.00 0.00 58 1011.5
20260901184803 86 149 0.0 2.6 0.00 0.00 0.00 58 1011.4
20260901184304 86 142 0.9 2.6 0.00 0.00 0.00 58 1011.4
20260901183303 86 262 1.7 2.6 0.00 0.00 0.00 58 1011.7
20260901182803 87 243 1.7 4.3 0.00 0.00 0.00 58 1011.8
20260901182305 89 328 1.7 4.3 0.00 0.00 0.00 58 1011.9
20260901181303 88 273 1.7 5.2 0.00 0.00 0.00 58 1012.1
20260901180804 88 294 1.7 4.3 0.00 0.00 0.00 58 1012.1
20260901180303 88 280 1.7 4.3 0.00 0.00 0.00 58 1012.1
20260901175305 88 222 1.7 2.6 0.00 0.00 0.00 62 1012.3
20260901174804 88 235 0.9 5.2 0.00 0.00 0.00 62 1012.3
20260901174304 88 259 0.9 2.6 0.00 0.00 0.00 62 1012.2
20260901173803 87 79 1.7 2.6 0.00 0.00 0.00 62 1012.2
20260901173304 86 148 0.9 2.6 0.00 0.00 0.00 62 1012.2
20260901172305 86 201 0.9 2.6 0.00 0.00 0.00 62 1012.3
20260901171303 86 38 1.7 4.3 0.00 0.00 0.00 62 1012.5
20260901170803 85 277 2.6 4.3 0.00 0.00 0.00 62 1012.6
20260901170303 85 285 1.7 7.0 0.00 0.00 0.00 62 1012.6
20260901165306 84 250 0.9 5.2 0.00 0.00 0.00 63 1012.6
20260901164804 84 263 1.7 4.3 0.00 0.00 0.00 63 1012.6
20260901164304 84 331 2.6 6.1 0.00 0.00 0.00 63 1012.7
20260901163803 84 302 0.9 2.6 0.00 0.00 0.00 63 1012.8
20260901163304 84 314 0.9 4.3 0.00 0.00 0.00 63 1012.9
20260901162803 82 298 0.9 7.0 0.00 0.00 0.00 63 1012.9
20260901162306 82 345 2.6 5.2 0.00 0.00 0.00 63 1012.8
20260901161803 82 344 0.9 6.1 0.00 0.00 0.00 63 1012.8
20260901161303 82 330 2.6 5.2 0.00 0.00 0.00 63 1012.8
20260901160803 82 22 2.6 7.0 0.00 0.00 0.00 63 1012.8
20260901155804 81 28 1.7 2.6 0.00 0.00 0.00 73 1012.8
20260901155306 81 44 1.7 5.2 0.00 0.00 0.00 73 1012.7
20260901154303 80 335 0.9 2.6 0.00 0.00 0.00 73 1012.7
20260901153803 80 308 0.9 2.6 0.00 0.00 0.00 73 1012.6
20260901153303 80 19 1.7 4.3 0.00 0.00 0.00 73 1012.6
20260901152803 79 342 1.7 5.2 0.00 0.00 0.00 73 1012.6
20260901152305 79 359 0.9 4.3 0.00 0.00 0.00 73 1012.5
20260901151803 79 330 4.3 7.0 0.00 0.00 0.00 73 1012.6
20260901151304 78 13 1.7 2.6 0.00 0.00 0.00 73 1012.6
20260901150804 78 314 3.5 4.3 0.00 0.00 0.00 73 1012.6
20260901150303 78 281 0.9 2.6 0.00 0.00 0.00 76 1012.7
20260901145803 76 294 0.9 2.6 0.00 0.00 0.00 92 1012.8
20260901144303 75 221 0.0 0.0 0.00 0.00 0.00 92 1012.8
20260901143803 74 218 0.9 2.6 0.00 0.00 0.00 92 1012.9
20260901143303 73 316 0.0 0.0 0.00 0.00 0.00 92 1012.9
20260901142803 72 316 0.0 0.9 0.00 0.00 0.00 92 1012.9
20260901142306 72 316 0.9 2.6 0.00 0.00 0.00 92 1012.9
20260901141803 71 316 0.9 1.7 0.00 0.00 0.00 92 1013.0
20260901141303 70 316 0.0 1.7 0.00 0.00 0.00 92 1012.9
20260901140803 69 0 0.0 2.6 0.00 0.00 0.00 92 1012.9
20260901140304 68 340 0.9 2.6 0.00 0.00 0.00 92 1012.9
20260901135803 67 340 0.0 0.9 0.00 0.00 0.00 100 1013.0
20260901135305 67 346 1.7 2.6 0.00 0.00 0.00 100 1013.1
20260901134803 66 286 0.9 2.6 0.00 0.00 0.00 100 1013.1
20260901133803 65 286 0.0 0.0 0.00 0.00 0.00 100 1012.8
20260901133304 65 286 0.0 0.0 0.00 0.00 0.00 100 1012.8
20260901132307 64 286 0.0 0.0 0.00 0.00 0.00 100 1012.8
20260901131804 64 286 0.0 0.9 0.00 0.00 0.00 100 1012.8
20260901131303 63 286 0.0 0.0 0.00 0.00 0.00 100 1012.8
20260901130804 63 0 0.0 0.0 0.00 0.00 0.00 100 1012.7
20260901125803 62 0 0.0 0.9 0.00 0.00 0.00 100 1012.7
20260901125308 62 0 0.0 0.9 0.00 0.00 0.00 100 1012.7
20260901124803 62 0 0.0 0.0 0.00 0.00 0.00 100 1012.6
20260901124304 62 0 0.0 0.0 0.00 0.00 0.00 100 1012.6
20260901123803 62 0 0.0 0.0 0.00 0.00 0.00 100 1012.6
20260901123304 61 0 0.0 0.0 0.00 0.00 0.00 100 1012.6
20260901122803 61 0 0.0 0.0 0.00 0.00 0.00 100 1012.6
20260901121803 61 0 0.0 0.0 0.00 0.00 0.00 100 1012.5
20260901121303 61 0 0.0 0.0 0.00 0.00 0.00 100 1012.4
20260901120804 60 0 0.0 0.0 0.00 0.00 0.00 100 1012.4
20260901120303 60 0 0.0 0.0 0.00 0.00 0.00 100 1012.3
20260901115803 60 0 0.0 0.0 0.00 0.00 0.00 100 1012.3
20260901115306 60 0 0.0 0.0 0.00 0.00 0.00 100 1012.3
20260901114303 61 0 0.0 0.0 0.00 0.00 0.00 100 1012.2
20260901113803 61 0 0.0 0.0 0.00 0.00 0.00 100 1012.1
20260901113304 60 0 0.0 0.0 0.00 0.00 0.00 100 1012.1
20260901112306 60 0 0.0 0.0 0.00 0.00 0.00 100 1011.9
20260901111303 60 0 0.0 0.0 0.00 0.00 0.00 100 1011.9
20260901110803 60 0 0.0 0.0 0.00 0.00 0.00 100 1011.8
20260901110304 60 0 0.0 0.0 0.00 0.00 0.00 100 1011.8
20260901104804 60 0 0.0 0.0 0.00 0.00 0.00 100 1012.0
20260901104303 61 0 0.0 0.0 0.00 0.00 0.00 100 1012.0
20260901103803 61 0 0.0 0.0 0.00 0.00 0.00 100 1011.9
20260901103304 61 0 0.0 0.0 0.00 0.00 0.00 100 1011.8
20260901102803 61 0 0.0 0.0 0.00 0.00 0.00 100 1011.9
20260901102306 61 0 0.0 0.9 0.00 0.00 0.00 100 1011.9
20260901101804 61 0 0.0 0.0 0.00 0.00 0.00 100 1012.0
20260901101303 61 0 0.0 0.0 0.00 0.00 0.00 100 1011.8
20260901100803 61 0 0.0 0.0 0.00 0.00 0.00 100 1011.8
20260901100304 61 0 0.0 0.0 0.00 0.00 0.00 100 1011.7
20260901095803 61 0 0.0 0.0 0.00 0.00 0.00 100 1011.7
20260901095306 61 0 0.0 0.0 0.00 0.00 0.00 100 1011.6
20260901094803 61 0 0.0 0.0 0.00 0.00 0.00 100 1011.6
20260901094304 61 0 0.0 0.0 0.00 0.00 0.00 100 1011.6
20260901093803 62 0 0.0 0.0 0.00 0.00 0.00 100 1011.6
20260901093303 62 0 0.0 0.0 0.00 0.00 0.00 100 1011.5
20260901092803 62 0 0.0 0.0 0.00 0.00 0.00 100 1011.5
20260901092305 62 0 0.0 0.0 0.00 0.00 0.00 100 1011.5
20260901091804 62 0 0.0 0.0 0.00 0.00 0.00 100 1011.3
20260901091303 62 0 0.0 0.0 0.00 0.00 0.00 100 1011.3
20260901090303 62 0 0.0 0.0 0.00 0.00 0.00 100 1011.4
20260901085803 63 0 0.0 0.0 0.00 0.00 0.00 100 1011.4
20260901085305 63 0 0.0 0.0 0.00 0.00 0.00 100 1011.5
20260901084303 63 0 0.0 0.0 0.00 0.00 0.00 100 1011.3
20260901083803 63 0 0.0 0.0 0.00 0.00 0.00 100 1011.3
20260901083303 63 0 0.0 0.0 0.00 0.00 0.00 100 1011.2
20260901082803 64 0 0.0 0.0 0.00 0.00 0.00 100 1011.2
20260901082306 64 0 0.0 0.0 0.00 0.00 0.00 100 1011.2
20260901081803 64 0 0.0 0.0 0.00 0.00 0.00 100 1011.3
20260901081303 64 0 0.0 0.0 0.00 0.00 0.00 100 1011.3
20260901080803 64 0 0.0 0.0 0.00 0.00 0.00 100 1011.3
20260901080304 64 0 0.0 0.0 0.00 0.00 0.00 100 1011.3
20260901075803 64 0 0.0 0.0 0.00 0.00 0.00 100 1011.3
20260901075307 64 0 0.0 0.0 0.00 0.00 0.00 100 1011.5
20260901074304 65 0 0.0 0.0 0.00 0.00 0.00 100 1011.5
20260901073303 65 0 0.0 0.0 0.00 0.00 0.00 100 1011.7
20260901072803 65 0 0.0 0.0 0.00 0.00 0.00 100 1011.8
20260901072308 65 0 0.0 0.0 0.00 0.00 0.00 100 1011.8
20260901071804 65 0 0.0 0.0 0.00 0.00 0.00 100 1011.9
20260901071304 66 0 0.0 0.0 0.00 0.00 0.00 100 1011.8
20260901070804 66 273 0.0 2.6 0.00 0.00 0.00 100 1011.8
20260901070303 65 272 0.0 0.9 0.00 0.00 0.00 100 1011.7
20260901065305 65 272 0.0 0.9 0.00 0.00 0.00 91 1011.8
20260901063803 66 274 0.0 0.0 0.00 0.00 0.00 91 1011.8
20260901062803 66 274 0.0 0.9 0.00 0.00 0.00 91 1011.8
20260901062309 66 273 0.0 2.6 0.00 0.00 0.00 91 1011.8
20260901061803 66 272 0.9 2.6 0.00 0.00 0.00 91 1011.8
20260901061304 66 263 0.0 0.9 0.00 0.00 0.00 91 1011.8
20260901060803 66 332 0.0 0.0 0.00 0.00 0.00 91 1011.7
20260901060304 66 320 0.0 0.0 0.00 0.00 0.00 91 1011.7
20260901055803 66 304 0.0 0.0 0.00 0.00 0.00 92 1011.6
20260901055306 66 274 0.0 0.0 0.00 0.00 0.00 92 1011.5
20260901054804 66 316 0.0 0.0 0.00 0.00 0.00 92 1011.5
20260901054303 66 278 0.0 0.0 0.00 0.00 0.00 92 1011.5
20260901053804 66 280 0.0 0.9 0.00 0.00 0.00 92 1011.5
20260901053303 67 280 0.0 0.9 0.00 0.00 0.00 92 1011.4
20260901052803 67 281 0.0 0.0 0.00 0.00 0.00 92 1011.4
20260901052306 67 276 0.0 0.0 0.00 0.00 0.00 92 1011.2
20260901051804 67 274 0.0 0.0 0.00 0.00 0.00 92 1011.2
20260901051303 67 281 0.0 0.0 0.00 0.00 0.00 92 1011.2
20260901050812 67 281 0.0 0.9 0.00 0.00 0.00 92 1011.2
20260901050303 67 284 0.0 0.0 0.00 0.00 0.00 92 1011.0
20260901045804 68 284 0.0 0.9 0.00 0.00 0.00 90 1011.0
20260901044803 68 284 0.0 0.0 0.00 0.00 0.00 90 1010.9
20260901044304 68 284 0.0 0.0 0.00 0.00 0.00 90 1010.9
20260901043804 68 284 0.0 0.0 0.00 0.00 0.00 90 1010.9
20260901043303 68 285 0.0 0.0 0.00 0.00 0.00 90 1010.8
20260901042803 68 285 0.0 0.0 0.00 0.00 0.00 90 1010.8
20260901042306 69 286 0.0 0.0 0.00 0.00 0.00 90 1010.8
20260901041803 69 286 0.0 0.0 0.00 0.00 0.00 90 1010.8
20260901041304 69 286 0.0 0.0 0.00 0.00 0.00 90 1010.8
20260901040803 69 286 0.0 0.0 0.00 0.00 0.00 90 1010.9
20260901040303 69 285 0.0 0.0 0.00 0.00 0.00 90 1010.9
20260901035804 69 285 0.0 0.0 0.00 0.00 0.00 85 1010.8
20260901035305 69 285 0.0 0.0 0.00 0.00 0.00 85 1010.8
20260901034803 70 285 0.0 0.0 0.00 0.00 0.00 85 1010.8
20260901034304 70 285 0.0 0.0 0.00 0.00 0.00 85 1010.8
20260901033804 70 286 0.0 0.0 0.00 0.00 0.00 85 1010.8
20260901033303 70 286 0.0 0.0 0.00 0.00 0.00 85 1010.7
20260901032803 70 286 0.0 0.0 0.00 0.00 0.00 85 1010.7
20260901032306 71 286 0.0 0.0 0.00 0.00 0.00 85 1010.7
20260901031804 71 286 0.0 0.0 0.00 0.00 0.00 85 1010.7
20260901031303 71 286 0.0 0.9 0.00 0.00 0.00 85 1010.6
20260901030803 71 286 0.0 0.0 0.00 0.00 0.00 85 1010.6
20260901025804 72 286 0.0 0.0 0.00 0.00 0.00 85 1010.6
20260901025306 72 288 0.0 0.0 0.00 0.00 0.00 85 1010.5
20260901024803 72 286 0.0 1.7 0.00 0.00 0.00 85 1010.4
20260901023803 73 290 0.0 2.6 0.00 0.00 0.00 85 1010.4
20260901023304 73 286 0.0 2.6 0.00 0.00 0.00 85 1010.4
20260901022804 73 286 0.9 1.7 0.00 0.00 0.00 85 1010.3